N172SP KMIA-KFLL

Flight info

Callsign N172SP
Flight time N/A
Altitude 3000
Route RV
Aircraft C172/L-V/N

Departure

Time 2026-05-03 21:02
Airport Miami International Airport (KMIA)

Arrival

Time N/A
Airport Fort Lauderdale Hollywood International Airport (KFLL)
Time Latitude Longitude Altitude Speed Heading
2026-05-03 20:45 25.80621 -80.29282 7 ft 0 kts 359°
2026-05-03 20:49 25.80625 -80.29282 7 ft 2 kts 358°
2026-05-03 20:49 25.80647 -80.29256 7 ft 8 kts 71°
2026-05-03 20:49 25.80648 -80.29175 7 ft 11 kts 115°
2026-05-03 20:49 25.80587 -80.29134 7 ft 10 kts 176°
2026-05-03 20:50 25.80508 -80.29134 7 ft 7 kts 180°
2026-05-03 20:50 25.80496 -80.29133 7 ft 1 kts 174°
2026-05-03 20:50 25.80469 -80.29136 7 ft 4 kts 205°
2026-05-03 20:50 25.80443 -80.29167 7 ft 6 kts 250°
2026-05-03 20:51 25.80441 -80.29177 7 ft 1 kts 266°
2026-05-03 20:51 25.80435 -80.29200 7 ft 2 kts 181°
2026-05-03 20:51 25.80427 -80.29188 7 ft 0 kts 119°
2026-05-03 20:52 25.80426 -80.29186 7 ft 0 kts 115°
2026-05-03 20:52 25.80426 -80.29185 7 ft 0 kts 118°
2026-05-03 21:00 25.80424 -80.29181 7 ft 1 kts 114°
2026-05-03 21:00 25.80417 -80.29167 7 ft 7 kts 123°
2026-05-03 21:00 25.80338 -80.29097 7 ft 8 kts 111°
2026-05-03 21:00 25.80335 -80.29077 7 ft 0 kts 92°
2026-05-03 21:01 25.80339 -80.29027 7 ft 28 kts 85°
2026-05-03 21:01 25.80350 -80.28608 34 ft 69 kts 85°
2026-05-03 21:01 25.80346 -80.28059 223 ft 70 kts 89°
2026-05-03 21:02 25.80283 -80.27498 425 ft 70 kts 95°
2026-05-03 21:02 25.80382 -80.26984 611 ft 68 kts 56°
2026-05-03 21:02 25.80657 -80.26540 806 ft 67 kts 52°
2026-05-03 21:02 25.80948 -80.26109 1003 ft 68 kts 52°
2026-05-03 21:03 25.81239 -80.25685 1195 ft 68 kts 52°
2026-05-03 21:03 25.81533 -80.25259 1376 ft 69 kts 52°
2026-05-03 21:03 25.81889 -80.24876 1571 ft 70 kts 23°
2026-05-03 21:03 25.82384 -80.24893 1758 ft 74 kts 346°
2026-05-03 21:04 25.82874 -80.25089 1945 ft 74 kts 340°
2026-05-03 21:04 25.83365 -80.25295 2140 ft 73 kts 342°
2026-05-03 21:04 25.83841 -80.25494 2328 ft 73 kts 341°
2026-05-03 21:04 25.84335 -80.25682 2514 ft 74 kts 341°
2026-05-03 21:05 25.84839 -80.25868 2718 ft 72 kts 341°
2026-05-03 21:05 25.85330 -80.26042 2898 ft 74 kts 341°
2026-05-03 21:05 25.85875 -80.26224 2976 ft 88 kts 342°
2026-05-03 21:05 25.86509 -80.26431 2979 ft 96 kts 343°
2026-05-03 21:06 25.87184 -80.26651 2977 ft 101 kts 343°
2026-05-03 21:06 25.87890 -80.26880 2973 ft 101 kts 343°
2026-05-03 21:06 25.88590 -80.27107 2972 ft 101 kts 342°
2026-05-03 21:06 25.89311 -80.27341 2972 ft 101 kts 343°
2026-05-03 21:07 25.90037 -80.27581 2973 ft 101 kts 342°
2026-05-03 21:07 25.90749 -80.27814 2971 ft 101 kts 343°
2026-05-03 21:07 25.91452 -80.28050 2973 ft 100 kts 343°
2026-05-03 21:07 25.92184 -80.28305 2974 ft 100 kts 343°